Tracking 31027 objects as of 19-Jul-2025
HD Live streaming from Space Station
objects crossing your sky now

STARLINK-1979

Track STARLINK-1979 now!
10-day predictions
STARLINK-1979 is classified as:


NORAD ID: 47577
Int'l Code: 2021-009AF
Perigee: 553.4 km
Apogee: 555.3 km
Inclination: 53.1 °
Period: 95.6 minutes
Semi major axis: 6925 km
RCS: Unknown
Launch date: February 4, 2021
Source: United States (US)
Launch site: AIR FORCE EASTERN TEST RANGE (AFETR)
Your satellite tracking list
STARLINK-31611
Track 1 satellite(s)




NASA's NSSDC Master Catalog

Two Line Element Set (TLE):
1 47577U 21009AF  25199.38701757  .00000847  00000-0  75765-4 0  9999
2 47577  53.0563 348.4447 0001321  88.0074 272.1067 15.06399984245552
Source of the keplerian elements: AFSPC